Weather in Magazinka

Russia / Republic of Crimea     45°51′30″N   34°03′05″E
temp.,
°C
wind,
m/s
gust,
m/s
humid.,
%
clouds,
%
prec.,
mm/h
press.,
hPa
HPBL,
m
16 june, wed
wed1600:00+15sw379276 0.0 1009147
03:00+14sw34897 0.0 101083
06:00+15ssw24875 0.0 1010100
09:00+20sse22655 0.0 1011800
12:00+24e11485 0.0 10111610
15:00+25ne324199 0.0 10102377
18:00+23ne344696 0.0 1010497
21:00+19n2260100 0.0 101121
17 june, thu
thu1700:00+18wnw4677100 0.0 101093
03:00+17nnw4881100 0.0 1010150
06:00+18n4979100 0.1 1010353
09:00+19nnw3885100 1.4 1010634
12:00+17nw51096100 19.2 1010681
15:00+20nnw3593100 24.6 1010359
18:00+22nnw2582100 3.9 1010443
21:00+19ne599448 6.4 1011309
18 june, fri
fri1800:00+19ne5109296 0.1 1012372
03:00+18ne499434 0.3 1011311
06:00+18se3498100 0.3 1011254
09:00+20se687950 0.4 1014710
12:00+25ese566014 0.5 10151290
15:00+26se345324 2.1 10151573
18:00+25ese66520 0.3 10161436
21:00+19e510790 0.3 1018234
19 june, sat
sat1900:00+18e388723 0.0 1017170
03:00+18e368984 0.0 1017111
06:00+18e24885 0.0 101795
09:00+24ene45615 0.1 1017956
12:00+27ene665918 0.0 10161496
15:00+26ene67606 0.1 10161113
18:00+24ene56650 0.0 1016699
21:00+21ene48895 0.0 1015252
20 june, sun
sun2000:00+22ene5118446 0.0 1015366
03:00+21ene510855 0.0 1014392
06:00+21ene5107911 0.1 1014542
09:00+24e796195 0.1 10131015
12:00+26e78550 0.0 10121024
15:00+26ene66551 0.0 10121121
18:00+26ene55580 0.0 1011884
21:00+22e34780 0.0 101254